| time (UTC) | temp F | wind direction | speed knots | gust knots | rain 1hr in | rain 24hr in | rain mn in | humidity % | barometer mb |
| 20260906233535 | 85 | 290 | 3.5 | 7.0 | 0.00 | 0.00 | 0.00 | 33 | 1014.8 |
| 20260906232515 | 85 | 313 | 5.2 | 8.7 | 0.00 | 0.00 | 0.00 | 33 | 1014.8 |
| 20260906231515 | 86 | 340 | 5.2 | 11.3 | 0.00 | 0.00 | 0.00 | 32 | 1014.8 |
| 20260906230514 | 85 | 334 | 4.3 | 10.4 | 0.00 | 0.00 | 0.00 | 33 | 1014.7 |
| 20260906225515 | 85 | 334 | 3.5 | 7.8 | 0.00 | 0.00 | 0.00 | 34 | 1014.7 |
| 20260906224515 | 84 | 331 | 4.3 | 10.4 | 0.00 | 0.00 | 0.00 | 34 | 1014.8 |
| 20260906223515 | 84 | 327 | 2.6 | 5.2 | 0.00 | 0.00 | 0.00 | 35 | 1014.8 |
| 20260906222535 | 84 | 335 | 5.2 | 11.3 | 0.00 | 0.00 | 0.00 | 35 | 1014.8 |
| 20260906221515 | 85 | 336 | 6.1 | 12.2 | 0.00 | 0.00 | 0.00 | 36 | 1014.8 |
| 20260906221035 | 86 | 339 | 4.3 | 7.8 | 0.00 | 0.00 | 0.00 | 35 | 1014.7 |
| 20260906215515 | 86 | 337 | 3.5 | 7.0 | 0.00 | 0.00 | 0.00 | 33 | 1014.7 |
| 20260906214515 | 87 | 341 | 3.5 | 8.7 | 0.00 | 0.00 | 0.00 | 31 | 1014.7 |
| 20260906213515 | 88 | 334 | 5.2 | 9.6 | 0.00 | 0.00 | 0.00 | 31 | 1014.7 |
| 20260906212515 | 88 | 333 | 3.5 | 10.4 | 0.00 | 0.00 | 0.00 | 31 | 1014.9 |
| 20260906211515 | 87 | 337 | 2.6 | 7.0 | 0.00 | 0.00 | 0.00 | 32 | 1015.0 |
| 20260906210515 | 87 | 343 | 5.2 | 10.4 | 0.00 | 0.00 | 0.00 | 30 | 1015.2 |
| 20260906205515 | 87 | 328 | 4.3 | 7.8 | 0.00 | 0.00 | 0.00 | 29 | 1015.2 |
| 20260906204515 | 86 | 341 | 2.6 | 7.0 | 0.00 | 0.00 | 0.00 | 31 | 1015.3 |
| 20260906203535 | 86 | 337 | 4.3 | 8.7 | 0.00 | 0.00 | 0.00 | 32 | 1015.4 |
| 20260906202515 | 86 | 335 | 5.2 | 10.4 | 0.00 | 0.00 | 0.00 | 32 | 1015.7 |
| 20260906201514 | 86 | 343 | 4.3 | 8.7 | 0.00 | 0.00 | 0.00 | 32 | 1015.8 |
| 20260906200515 | 87 | 324 | 5.2 | 8.7 | 0.00 | 0.00 | 0.00 | 31 | 1015.9 |
| 20260906195514 | 86 | 343 | 4.3 | 7.0 | 0.00 | 0.00 | 0.00 | 31 | 1016.1 |
| 20260906194515 | 86 | 321 | 2.6 | 7.0 | 0.00 | 0.00 | 0.00 | 30 | 1016.1 |
| 20260906193514 | 86 | 331 | 3.5 | 6.1 | 0.00 | 0.00 | 0.00 | 30 | 1016.3 |
| 20260906192514 | 86 | 325 | 3.5 | 7.0 | 0.00 | 0.00 | 0.00 | 29 | 1016.4 |
| 20260906191514 | 88 | 338 | 3.5 | 7.0 | 0.00 | 0.00 | 0.00 | 27 | 1016.5 |
| 20260906190515 | 88 | 338 | 1.7 | 5.2 | 0.00 | 0.00 | 0.00 | 28 | 1016.8 |
| 20260906185514 | 87 | 292 | 1.7 | 4.3 | 0.00 | 0.00 | 0.00 | 28 | 1016.9 |
| 20260906184535 | 86 | 325 | 2.6 | 4.3 | 0.00 | 0.00 | 0.00 | 30 | 1017.1 |
| 20260906183515 | 86 | 345 | 1.7 | 7.0 | 0.00 | 0.00 | 0.00 | 32 | 1017.3 |
| 20260906182514 | 85 | 297 | 1.7 | 5.2 | 0.00 | 0.00 | 0.00 | 32 | 1017.5 |
| 20260906181514 | 84 | 245 | 1.7 | 3.5 | 0.00 | 0.00 | 0.00 | 30 | 1017.6 |
| 20260906180514 | 84 | 221 | 2.6 | 5.2 | 0.00 | 0.00 | 0.00 | 31 | 1017.8 |
| 20260906175515 | 84 | 184 | 0.9 | 1.7 | 0.00 | 0.00 | 0.00 | 32 | 1018.0 |
| 20260906174514 | 83 | 176 | 1.7 | 4.3 | 0.00 | 0.00 | 0.00 | 32 | 1018.1 |
| 20260906173514 | 83 | 156 | 1.7 | 5.2 | 0.00 | 0.00 | 0.00 | 32 | 1018.3 |
| 20260906172514 | 82 | 136 | 0.9 | 3.5 | 0.00 | 0.00 | 0.00 | 33 | 1018.3 |
| 20260906171514 | 81 | 131 | 3.5 | 7.0 | 0.00 | 0.00 | 0.00 | 36 | 1018.4 |
| 20260906170514 | 80 | 54 | 1.7 | 3.5 | 0.00 | 0.00 | 0.00 | 38 | 1018.6 |
| 20260906165515 | 79 | 140 | 3.5 | 6.1 | 0.00 | 0.00 | 0.00 | 37 | 1018.7 |
| 20260906164515 | 78 | 116 | 2.6 | 7.0 | 0.00 | 0.00 | 0.00 | 38 | 1018.8 |
| 20260906163514 | 77 | 131 | 2.6 | 7.8 | 0.00 | 0.00 | 0.00 | 39 | 1018.7 |
| 20260906162535 | 78 | 147 | 4.3 | 9.6 | 0.00 | 0.00 | 0.00 | 38 | 1018.7 |
| 20260906161534 | 77 | 146 | 3.5 | 7.0 | 0.00 | 0.00 | 0.00 | 39 | 1018.8 |
| 20260906160515 | 76 | 138 | 3.5 | 9.6 | 0.00 | 0.00 | 0.00 | 39 | 1018.8 |
| 20260906155515 | 76 | 151 | 5.2 | 10.4 | 0.00 | 0.00 | 0.00 | 38 | 1018.8 |
| 20260906154515 | 75 | 138 | 6.1 | 12.2 | 0.00 | 0.00 | 0.00 | 40 | 1018.9 |
| 20260906153515 | 73 | 121 | 2.6 | 7.0 | 0.00 | 0.00 | 0.00 | 45 | 1018.9 |
| 20260906152535 | 72 | 95 | 1.7 | 4.3 | 0.00 | 0.00 | 0.00 | 48 | 1019.0 |
| 20260906151535 | 71 | 32 | 0.9 | 5.2 | 0.00 | 0.00 | 0.00 | 48 | 1019.0 |
| 20260906150515 | 71 | 124 | 2.6 | 7.8 | 0.00 | 0.00 | 0.00 | 47 | 1019.1 |
| 20260906145515 | 72 | 28 | 2.6 | 9.6 | 0.00 | 0.00 | 0.00 | 46 | 1019.0 |
| 20260906144515 | 72 | 107 | 4.3 | 7.8 | 0.00 | 0.00 | 0.00 | 48 | 1019.1 |
| 20260906143515 | 70 | 102 | 4.3 | 7.0 | 0.00 | 0.00 | 0.00 | 48 | 1019.1 |
| 20260906142515 | 67 | 52 | 2.6 | 7.8 | 0.00 | 0.00 | 0.00 | 53 | 1019.2 |
| 20260906141515 | 66 | 0 | 0.0 | 1.7 | 0.00 | 0.00 | 0.00 | 57 | 1019.2 |
| 20260906140515 | 64 | 6 | 1.7 | 4.3 | 0.00 | 0.00 | 0.00 | 58 | 1019.1 |
| 20260906135535 | 62 | 116 | 0.0 | 3.5 | 0.00 | 0.00 | 0.00 | 60 | 1018.9 |
| 20260906134515 | 62 | 0.0 | 0.0 | 0.00 | 0.00 | 0.00 | 60 | 1018.8 | |
| 20260906133515 | 62 | 0.0 | 0.0 | 0.00 | 0.00 | 0.00 | 60 | 1018.8 | |
| 20260906132515 | 62 | 0.0 | 0.0 | 0.00 | 0.00 | 0.00 | 58 | 1018.7 | |
| 20260906131535 | 62 | 0.0 | 0.0 | 0.00 | 0.00 | 0.00 | 59 | 1018.6 | |
| 20260906130515 | 62 | 0.0 | 0.0 | 0.00 | 0.00 | 0.00 | 60 | 1018.6 | |
| 20260906125515 | 61 | 164 | 0.9 | 3.5 | 0.00 | 0.00 | 0.00 | 61 | 1018.5 |
| 20260906124515 | 61 | 126 | 0.9 | 1.7 | 0.00 | 0.00 | 0.00 | 62 | 1018.5 |
| 20260906123515 | 60 | 0.0 | 0.0 | 0.00 | 0.00 | 0.00 | 62 | 1018.4 | |
| 20260906122535 | 60 | 0.0 | 0.0 | 0.00 | 0.00 | 0.00 | 64 | 1018.3 | |
| 20260906121515 | 60 | 0.0 | 0.0 | 0.00 | 0.00 | 0.00 | 66 | 1018.3 | |
| 20260906120515 | 60 | 0.0 | 0.0 | 0.00 | 0.00 | 0.00 | 66 | 1018.3 | |
| 20260906115515 | 60 | 0.0 | 0.0 | 0.00 | 0.00 | 0.00 | 66 | 1018.2 | |
| 20260906114515 | 60 | 0.0 | 0.0 | 0.00 | 0.00 | 0.00 | 63 | 1018.2 | |
| 20260906113515 | 60 | 0.0 | 0.0 | 0.00 | 0.00 | 0.00 | 62 | 1018.1 | |
| 20260906112515 | 60 | 0.0 | 0.0 | 0.00 | 0.00 | 0.00 | 64 | 1018.2 | |
| 20260906111515 | 59 | 0.0 | 0.0 | 0.00 | 0.00 | 0.00 | 66 | 1018.0 | |
| 20260906110515 | 59 | 0.0 | 0.0 | 0.00 | 0.00 | 0.00 | 69 | 1018.0 | |
| 20260906105515 | 59 | 0.0 | 0.0 | 0.00 | 0.00 | 0.00 | 69 | 1018.1 | |
| 20260906104515 | 59 | 0.0 | 0.0 | 0.00 | 0.00 | 0.00 | 68 | 1017.9 | |
| 20260906103515 | 60 | 0.0 | 0.0 | 0.00 | 0.00 | 0.00 | 67 | 1017.9 | |
| 20260906102535 | 60 | 0.0 | 0.0 | 0.00 | 0.00 | 0.00 | 66 | 1017.7 | |
| 20260906101515 | 60 | 0.0 | 0.0 | 0.00 | 0.00 | 0.00 | 65 | 1017.7 | |
| 20260906100515 | 60 | 0.0 | 0.0 | 0.00 | 0.00 | 0.00 | 65 | 1017.7 | |
| 20260906095515 | 59 | 124 | 0.0 | 0.9 | 0.00 | 0.00 | 0.00 | 64 | 1017.5 |
| 20260906094515 | 59 | 0.0 | 0.0 | 0.00 | 0.00 | 0.00 | 68 | 1017.5 | |
| 20260906093515 | 59 | 0.0 | 0.0 | 0.00 | 0.00 | 0.00 | 70 | 1017.6 | |
| 20260906092515 | 59 | 0.0 | 0.0 | 0.00 | 0.00 | 0.00 | 69 | 1017.5 | |
| 20260906091535 | 59 | 0.0 | 0.0 | 0.00 | 0.00 | 0.00 | 70 | 1017.6 | |
| 20260906090515 | 59 | 0.0 | 0.0 | 0.00 | 0.00 | 0.00 | 69 | 1017.7 | |
| 20260906085515 | 60 | 0.0 | 0.0 | 0.00 | 0.00 | 0.00 | 69 | 1017.6 | |
| 20260906084515 | 60 | 0.0 | 0.0 | 0.00 | 0.00 | 0.00 | 68 | 1017.8 | |
| 20260906083515 | 60 | 0.0 | 0.0 | 0.00 | 0.00 | 0.00 | 67 | 1017.6 | |
| 20260906082515 | 60 | 0.0 | 0.0 | 0.00 | 0.00 | 0.00 | 66 | 1017.6 | |
| 20260906081515 | 61 | 0.0 | 0.0 | 0.00 | 0.00 | 0.00 | 65 | 1017.8 | |
| 20260906080515 | 61 | 0.0 | 0.0 | 0.00 | 0.00 | 0.00 | 63 | 1017.6 | |
| 20260906075515 | 61 | 0.0 | 0.0 | 0.00 | 0.00 | 0.00 | 62 | 1017.6 | |
| 20260906074515 | 62 | 0.0 | 0.0 | 0.00 | 0.00 | 0.00 | 60 | 1017.4 | |
| 20260906074015 | 62 | 0.0 | 0.0 | 0.00 | 0.00 | 0.00 | 60 | 1017.4 | |
| 20260906072515 | 63 | 0.0 | 0.0 | 0.00 | 0.00 | 0.00 | 59 | 1017.3 | |
| 20260906071515 | 64 | 0.0 | 0.0 | 0.00 | 0.00 | 0.00 | 56 | 1017.4 | |
| 20260906070515 | 64 | 0.0 | 0.0 | 0.00 | 0.00 | 0.00 | 55 | 1017.6 | |
| 20260906065515 | 65 | 333 | 0.0 | 0.9 | 0.00 | 0.00 | 0.00 | 53 | 1017.6 |
| 20260906064535 | 65 | 0.0 | 0.0 | 0.00 | 0.00 | 0.00 | 49 | 1017.5 | |
| 20260906063515 | 65 | 333 | 0.0 | 0.9 | 0.00 | 0.00 | 0.00 | 49 | 1017.5 |
| 20260906062515 | 65 | 333 | 0.0 | 0.9 | 0.00 | 0.00 | 0.00 | 49 | 1017.3 |
| 20260906061515 | 65 | 333 | 0.9 | 1.7 | 0.00 | 0.00 | 0.00 | 50 | 1017.2 |
| 20260906060515 | 64 | 333 | 0.0 | 0.9 | 0.00 | 0.00 | 0.00 | 53 | 1017.2 |
| 20260906055514 | 64 | 0.0 | 0.0 | 0.00 | 0.00 | 0.00 | 54 | 1017.1 | |
| 20260906054515 | 65 | 0.0 | 0.0 | 0.00 | 0.00 | 0.00 | 55 | 1017.2 | |
| 20260906053535 | 65 | 0.0 | 0.0 | 0.00 | 0.00 | 0.00 | 53 | 1017.2 | |
| 20260906052514 | 65 | 0.0 | 0.0 | 0.00 | 0.00 | 0.00 | 53 | 1017.2 | |
| 20260906051555 | 66 | 0.0 | 0.0 | 0.00 | 0.00 | 0.00 | 52 | 1017.2 | |
| 20260906050555 | 66 | 0.0 | 0.0 | 0.00 | 0.00 | 0.00 | 51 | 1017.2 | |
| 20260906045535 | 66 | 333 | 0.0 | 1.7 | 0.00 | 0.00 | 0.00 | 52 | 1017.1 |
| 20260906044515 | 67 | 333 | 0.0 | 1.7 | 0.00 | 0.00 | 0.00 | 52 | 1017.0 |
| 20260906043515 | 67 | 0.0 | 0.0 | 0.00 | 0.00 | 0.00 | 52 | 1017.0 | |
| 20260906042515 | 68 | 0.0 | 0.0 | 0.00 | 0.00 | 0.00 | 52 | 1016.9 | |
| 20260906041516 | 69 | 0.0 | 0.0 | 0.00 | 0.00 | 0.00 | 50 | 1016.8 | |
| 20260906040535 | 69 | 0.0 | 0.0 | 0.00 | 0.00 | 0.00 | 51 | 1016.7 | |
| 20260906035515 | 70 | 0.0 | 0.0 | 0.00 | 0.00 | 0.00 | 49 | 1016.7 | |
| 20260906034515 | 71 | 0.0 | 0.0 | 0.00 | 0.00 | 0.00 | 50 | 1016.6 | |
| 20260906033515 | 72 | 0.0 | 0.0 | 0.00 | 0.00 | 0.00 | 49 | 1016.5 | |
| 20260906032515 | 72 | 333 | 0.0 | 0.9 | 0.00 | 0.00 | 0.00 | 47 | 1016.5 |
| 20260906031515 | 74 | 0.0 | 0.0 | 0.00 | 0.00 | 0.00 | 48 | 1016.3 | |
| 20260906030515 | 75 | 0.0 | 0.0 | 0.00 | 0.00 | 0.00 | 44 | 1016.1 | |
| 20260906025515 | 76 | 0.0 | 0.0 | 0.00 | 0.00 | 0.00 | 43 | 1016.0 | |
| 20260906024515 | 77 | 333 | 0.0 | 0.9 | 0.00 | 0.00 | 0.00 | 42 | 1015.8 |
| 20260906023515 | 78 | 333 | 0.0 | 0.9 | 0.00 | 0.00 | 0.00 | 42 | 1015.7 |
| 20260906022555 | 79 | 0.0 | 0.0 | 0.00 | 0.00 | 0.00 | 39 | 1015.5 | |
| 20260906021515 | 80 | 333 | 0.9 | 3.5 | 0.00 | 0.00 | 0.00 | 38 | 1015.4 |
| 20260906020515 | 80 | 0.0 | 0.0 | 0.00 | 0.00 | 0.00 | 39 | 1015.4 | |
| 20260906015535 | 82 | 0.0 | 0.0 | 0.00 | 0.00 | 0.00 | 42 | 1015.3 | |
| 20260906014535 | 83 | 331 | 0.0 | 0.9 | 0.00 | 0.00 | 0.00 | 40 | 1015.3 |
| 20260906013515 | 85 | 0.0 | 0.0 | 0.00 | 0.00 | 0.00 | 38 | 1015.3 | |
| 20260906012515 | 86 | 331 | 0.0 | 1.7 | 0.00 | 0.00 | 0.00 | 37 | 1015.2 |
| 20260906011515 | 87 | 330 | 0.9 | 4.3 | 0.00 | 0.00 | 0.00 | 34 | 1015.2 |
| 20260906010535 | 88 | 327 | 0.0 | 0.9 | 0.00 | 0.00 | 0.00 | 34 | 1015.3 |
| 20260906005515 | 88 | 353 | 1.7 | 4.3 | 0.00 | 0.00 | 0.00 | 32 | 1015.3 |
| 20260906004515 | 88 | 344 | 2.6 | 4.3 | 0.00 | 0.00 | 0.00 | 32 | 1015.4 |
| 20260906003515 | 89 | 342 | 2.6 | 6.1 | 0.00 | 0.00 | 0.00 | 32 | 1015.3 |
| 20260906002515 | 89 | 337 | 3.5 | 6.1 | 0.00 | 0.00 | 0.00 | 32 | 1015.4 |
| 20260906001516 | 89 | 350 | 2.6 | 6.1 | 0.00 | 0.00 | 0.00 | 32 | 1015.4 |
| 20260906000516 | 89 | 342 | 2.6 | 7.0 | 0.00 | 0.00 | 0.00 | 33 | 1015.4 |
| 20260905235515 | 89 | 350 | 1.7 | 4.3 | 0.00 | 0.00 | 0.00 | 33 | 1015.4 |
| 20260905234535 | 89 | 349 | 3.5 | 8.7 | 0.00 | 0.00 | 0.00 | 31 | 1015.4 |